Date String (YYYY-MM-DD hh:mm:ss) UTC,Instrument flags,absolute air pressure of the measurement (hPa),sample flow rate (lpm),inlet stack bypass flow (lpm),air temperature of the measurement (°C),ambient temperature measured by the external sensor (°C),aerosol sample conditioner tube jacket temperature (°C),OPC LED temperature (°C),internal box temperature (°C),relative humidity of the measurement (%),span deviation,mass concentration of particles derived from Lorenz-Mie calculation of OPC scattering (μg/m³),mass concentration of particles derived from Lorenz-Mie calculation of OPC scattering (μg/m³),mass concentration of particles derived from Lorenz-Mie calculation of OPC scattering (μg/m³)
DateTimeUTC,F1_M11,P_M11,Q1_M11,Q2_M11,T1_M11,T2_M11,T3_M11,T4_M11,T5_M11,U1_M11,ZSPAN_M11,X0_M11,X2_M11,X1_M11
2024-05-25 11:00:00,SystemResetWarning,0820.7,4.98,000.00,029.0,028.1,000.0,037.4,030.7,012.3,0000.0,0011.85,0003.70,0002.26
2024-05-25 11:01:00,SystemResetWarning,0820.7,5.02,000.00,029.0,028.1,000.0,037.4,030.7,012.3,0000.0,0011.82,0003.69,0002.27
2024-05-25 11:02:00,SystemResetWarning,0820.7,5.00,000.00,029.0,028.1,000.0,037.4,030.7,012.3,0000.0,0011.73,0003.67,0002.27
2024-05-25 11:03:00,SystemResetWarning,0820.8,4.99,000.00,029.0,028.1,000.0,037.4,030.7,012.3,0000.0,0010.91,0003.72,0002.28
2024-05-25 11:04:00,SystemResetWarning,0820.7,4.99,000.00,029.0,028.1,000.0,037.4,030.7,012.3,0000.0,0010.21,0003.67,0002.30
2024-05-25 11:05:00,SystemResetWarning,0820.6,5.00,000.00,029.0,028.1,000.0,037.4,030.7,012.3,0000.0,0010.08,0003.61,0002.29
2024-05-25 11:06:00,SystemResetWarning,0820.7,5.01,000.00,029.0,028.1,000.0,037.4,030.6,012.3,0000.0,0010.41,0003.67,0002.30
2024-05-25 11:07:00,SystemResetWarning,0820.7,5.00,000.00,029.0,028.1,000.0,037.4,030.6,012.3,0000.0,0010.37,0003.67,0002.30
2024-05-25 11:08:00,SystemResetWarning,0820.6,5.00,000.00,029.0,028.1,000.0,037.4,030.6,012.3,0000.0,0010.14,0003.67,0002.32
2024-05-25 11:09:00,SystemResetWarning,0820.6,5.00,000.00,029.0,028.1,000.0,037.4,030.6,012.3,0000.0,0009.28,0003.62,0002.33
2024-05-25 11:10:00,SystemResetWarning,0820.6,5.00,000.00,028.9,028.1,000.0,037.4,030.6,012.3,0000.0,0008.89,0003.59,0002.33
2024-05-25 11:11:00,SystemResetWarning,0820.6,5.01,000.00,028.9,028.1,000.0,037.4,030.6,012.3,0000.0,0008.94,0003.57,0002.33
2024-05-25 11:12:00,SystemResetWarning,0820.7,4.99,000.00,028.9,028.1,000.0,037.3,030.6,012.4,0000.0,0008.83,0003.54,0002.33
2024-05-25 11:13:00,SystemResetWarning,0820.7,4.99,000.00,028.9,028.1,000.0,037.3,030.6,012.4,0000.0,0008.80,0003.53,0002.34
2024-05-25 11:14:00,SystemResetWarning,0820.6,5.00,000.00,028.9,028.0,000.0,037.3,030.6,012.4,0000.0,0008.94,0003.51,0002.35
2024-05-25 11:15:00,SystemResetWarning,0820.6,5.01,000.00,028.9,028.0,000.0,037.3,030.5,012.3,0000.0,0009.54,0003.54,0002.37
2024-05-25 11:16:00,SystemResetWarning,0820.5,5.01,000.00,028.9,028.0,000.0,037.3,030.6,012.3,0000.0,0010.79,0003.58,0002.37
2024-05-25 11:17:00,SystemResetWarning,0820.6,5.00,000.00,028.9,028.0,000.0,037.3,030.6,012.4,0000.0,0011.40,0003.56,0002.36
2024-05-25 11:18:00,SystemResetWarning,0820.5,4.98,000.00,028.9,028.0,000.0,037.3,030.6,012.4,0000.0,0011.41,0003.60,0002.36
2024-05-25 11:19:00,SystemResetWarning,0820.5,5.01,000.00,028.9,028.0,000.0,037.3,030.6,012.4,0000.0,0012.09,0003.65,0002.35
2024-05-25 11:20:00,SystemResetWarning,0820.6,5.01,000.00,028.9,028.0,000.0,037.3,030.5,012.4,0000.0,0012.73,0003.66,0002.35
2024-05-25 11:21:00,SystemResetWarning,0820.5,5.00,000.00,028.9,028.0,000.0,037.3,030.5,012.4,0000.0,0012.51,0003.70,0002.36
2024-05-25 11:22:00,SystemResetWarning,0820.5,4.99,000.00,028.9,028.0,000.0,037.3,030.5,012.4,0000.0,0012.34,0003.74,0002.35
2024-05-25 11:23:00,SystemResetWarning,0820.5,4.99,000.00,028.9,028.0,000.0,037.3,030.5,012.4,0000.0,0012.87,0003.83,0002.36
2024-05-25 11:24:00,SystemResetWarning,0820.5,5.00,000.00,028.9,028.0,000.0,037.3,030.5,012.4,0000.0,0013.23,0003.87,0002.36
2024-05-25 11:25:00,SystemResetWarning,0820.5,5.00,000.00,028.8,028.0,000.0,037.3,030.5,012.4,0000.0,0013.95,0003.87,0002.36
2024-05-25 11:26:00,SystemResetWarning,0820.4,5.01,000.00,028.8,028.0,000.0,037.2,030.5,012.4,0000.0,0014.23,0003.87,0002.34
2024-05-25 11:27:00,SystemResetWarning,0820.5,5.00,000.00,028.8,027.9,000.0,037.2,030.5,012.4,0000.0,0013.61,0003.94,0002.35
2024-05-25 11:28:00,SystemResetWarning,0820.5,5.00,000.00,028.8,027.9,000.0,037.2,030.5,012.5,0000.0,0012.53,0003.91,0002.36
2024-05-25 11:29:00,SystemResetWarning,0820.5,5.01,000.00,028.8,027.9,000.0,037.2,030.5,012.5,0000.0,0012.46,0003.88,0002.37
2024-05-25 11:30:00,SystemResetWarning,0820.5,5.01,000.00,028.8,027.9,000.0,037.2,030.4,012.5,0000.0,0012.14,0003.85,0002.36
2024-05-25 11:31:00,SystemResetWarning,0820.5,5.00,000.00,028.8,027.9,000.0,037.2,030.5,012.6,0000.0,0011.55,0003.91,0002.36
2024-05-25 11:32:00,SystemResetWarning,0820.6,4.99,000.00,028.8,027.9,000.0,037.2,030.5,012.6,0000.0,0011.83,0003.96,0002.35
2024-05-25 11:33:00,SystemResetWarning,0820.6,4.99,000.00,028.8,027.9,000.0,037.2,030.5,012.6,0000.0,0012.00,0003.93,0002.36
2024-05-25 11:34:00,SystemResetWarning,0820.5,5.00,000.00,028.8,027.9,000.0,037.2,030.4,012.5,0000.0,0011.73,0003.88,0002.35
2024-05-25 11:35:00,SystemResetWarning,0820.6,5.01,000.00,028.8,027.9,000.0,037.2,030.4,012.5,0000.0,0012.00,0003.85,0002.33
2024-05-25 11:36:00,SystemResetWarning,0820.6,5.01,000.00,028.8,027.9,000.0,037.2,030.4,012.6,0000.0,0012.15,0003.87,0002.33
2024-05-25 11:37:00,SystemResetWarning,0820.7,5.00,000.00,028.7,027.9,000.0,037.1,030.4,012.6,0000.0,0011.18,0003.92,0002.33
2024-05-25 11:38:00,SystemResetWarning,0820.7,4.99,000.00,028.7,027.9,000.0,037.1,030.4,012.6,0000.0,0010.96,0003.88,0002.35
2024-05-25 11:39:00,SystemResetWarning,0820.6,4.99,000.00,028.7,027.8,000.0,037.1,030.4,012.6,0000.0,0010.81,0003.90,0002.36
2024-05-25 11:40:00,SystemResetWarning,0820.5,5.00,000.00,028.7,027.8,000.0,037.1,030.4,012.6,0000.0,0010.78,0003.96,0002.37
2024-05-25 11:41:00,SystemResetWarning,0820.5,5.01,000.00,028.7,027.8,000.0,037.1,030.3,012.6,0000.0,0010.77,0003.96,0002.37
2024-05-25 11:42:00,SystemResetWarning,0820.5,5.00,000.00,028.7,027.8,000.0,037.1,030.3,012.6,0000.0,0010.89,0003.90,0002.38
2024-05-25 11:43:00,SystemResetWarning,0820.5,5.00,000.00,028.7,027.8,000.0,037.1,030.3,012.6,0000.0,0011.21,0003.82,0002.40
2024-05-25 11:44:00,SystemResetWarning,0820.6,4.99,000.00,028.7,027.8,000.0,037.1,030.4,012.7,0000.0,0011.18,0003.82,0002.39
2024-05-25 11:45:00,SystemResetWarning,0820.6,4.99,000.00,028.7,027.8,000.0,037.1,030.4,012.7,0000.0,0011.85,0003.86,0002.39
2024-05-25 11:46:00,SystemResetWarning,0820.6,5.00,000.00,028.7,027.8,000.0,037.1,030.3,012.7,0000.0,0011.37,0003.84,0002.40
2024-05-25 11:47:00,SystemResetWarning,0820.5,5.02,000.00,028.7,027.8,000.0,037.1,030.3,012.7,0000.0,0010.48,0003.79,0002.41
2024-05-25 11:48:00,SystemResetWarning,0820.5,4.98,000.00,028.7,027.8,000.0,037.0,030.3,012.7,0000.0,0010.30,0003.72,0002.40
2024-05-25 11:49:00,SystemResetWarning,0820.5,5.00,000.00,028.7,027.8,000.0,037.0,030.3,012.6,0000.0,0010.81,0003.75,0002.39
2024-05-25 11:50:00,SystemResetWarning,0820.6,5.02,000.00,028.6,027.8,000.0,037.0,030.3,012.7,0000.0,0010.76,0003.74,0002.39
2024-05-25 11:51:00,SystemResetWarning,0820.6,4.99,000.00,028.6,027.8,000.0,037.0,030.3,012.7,0000.0,0010.64,0003.71,0002.39
2024-05-25 11:52:00,SystemResetWarning,0820.6,4.99,000.00,028.6,027.8,000.0,037.0,030.3,012.7,0000.0,0010.62,0003.70,0002.39
2024-05-25 11:53:00,SystemResetWarning,0820.6,4.99,000.00,028.6,027.7,000.0,037.0,030.2,012.7,0000.0,0010.36,0003.75,0002.39
2024-05-25 11:54:00,SystemResetWarning,0820.6,5.01,000.00,028.6,027.7,000.0,037.0,030.2,012.7,0000.0,0009.89,0003.80,0002.39
2024-05-25 11:55:00,SystemResetWarning,0820.8,5.00,000.00,028.6,027.7,000.0,037.0,030.3,012.8,0000.0,0009.62,0003.81,0002.40
2024-05-25 11:56:00,SystemResetWarning,0820.9,4.99,000.00,028.6,027.7,000.0,037.0,030.3,012.8,0000.0,0009.29,0003.85,0002.40
2024-05-25 11:57:00,SystemResetWarning,0820.6,4.99,000.00,028.6,027.7,000.0,037.0,030.3,012.8,0000.0,0010.54,0003.87,0002.40
2024-05-25 11:58:00,SystemResetWarning,0820.5,5.00,000.00,028.6,027.7,000.0,037.0,030.3,012.8,0000.0,0010.62,0003.89,0002.40
2024-05-25 11:59:00,SystemResetWarning,0820.5,5.00,000.00,028.6,027.7,000.0,037.0,030.2,012.8,0000.0,0010.67,0003.91,0002.38
